sat.trackr.live / text

‹ back to catalog

ONEWEB-0266

NORAD 48984 · 2021-060T

PAYLOAD ACTIVE UNKNOWN

§ Identity

Operator
Country
UK
Launch date
2021-07-01
Launch site
VOSTO
Launch vehicle
Mass (kg)
RCS (m²)

Purposes: comms

External: N2YO · Heavens-Above · Gunter

§ Orbital elements

Epoch: 2026-05-25T04:17:09.916800Z

Period
109.37 min
Inclination
87.9106°
Eccentricity
0.0002030
Mean motion
13.16593088 rev/d
Perigee alt
1,196.2 km
Apogee alt
1,199.3 km
Semi-major
7,575.9 km
B*
1.1942e-4
RAAN
233.3428°
Arg perigee
102.2468°
Mean anomaly
257.8890°
Rev number
23,655

§ Raw data

ONEWEB-02661 48984U 21060T   26145.17858700  .00000058  00000+0  11942-3 0  99982 48984  87.9106 233.3428 0002030 102.2468 257.8890 13.16593088236553

JSON: /api/v1/satellites/48984 · /tle

For live sub-satellite position, see the globe view (requires WebGL).

§ Visibility from observer

Set your observer location to see the next 7 days of passes ≥ 10°. The values pass through the URL so the page stays shareable.

No JS? Fill the form by hand. The geolocation button needs JavaScript.